Hourly Data Report for January 03, 2003

TORONTO CITY
ONTARIO

43°40'00.000" N
79°24'00.000" W
112.50 m
6158355
71508
XTO

Download Data

Hourly Data (January 2003)
Hourly Data Report for January 3, 2003
TIME
LST
Temp Definition
°C
Dew Point Definition
°C
Rel Hum Definition
%
Precip. Amount Definition
mm

Wind Dir Definition
10's deg

Wind Spd Definition
km/h
Visibility Definition
km
Stn Press Definition
kPa
Hmdx Definition


Wind Chill Definition


Weather Definition


00:00 -5.6 -6.6 93     0 LegendMM 100.25     LegendNANA
01:00
02:00 -5.2 -6.1 93     0 LegendMM 100.14     LegendNANA
03:00 -2.8 -3.3 96     0 LegendMM 100.07     LegendNANA
04:00 -1.3 -1.8 96     0 LegendMM 100.02     LegendNANA
05:00 -1.1 -1.5 97     0 LegendMM 99.98     LegendNANA
06:00 -0.9 -1.3 97     0 LegendMM 99.99     LegendNANA
07:00 -0.8 -1.2 97     0 LegendMM 99.96     LegendNANA
08:00 -0.5 -0.9 97     0 LegendMM 99.98     LegendNANA
09:00 -0.3 -0.7 97     0 LegendMM 99.98     LegendNANA
10:00 -0.1 -0.3 99     0 LegendMM 99.95     LegendNANA
11:00 0.1 -0.1 99     0 LegendMM 99.92     LegendNANA
12:00 0.0 -0.2 99     0 LegendMM 99.82     LegendNANA
13:00
14:00 0.2 0.2 100     0 LegendMM 99.75     LegendNANA
15:00 0.2 0.2 100     0 LegendMM 99.75     LegendNANA
16:00 0.2 0.2 100     0 LegendMM 99.78     LegendNANA
17:00 0.2 0.1 99     0 LegendMM 99.78     LegendNANA
18:00 0.2 0.1 99     0 LegendMM 99.80     LegendNANA
19:00 0.3 0.2 99     0 LegendMM 99.80     LegendNANA
20:00 -1.0 -1.4 97     0 LegendMM 99.84     LegendNANA
21:00 -1.7 -2.1 97     0 LegendMM 99.83     LegendNANA
22:00 -2.1 -2.6 96     0 LegendMM 99.84     LegendNANA
23:00 -2.3 -2.9 96     0 LegendMM 99.82     LegendNANA

Notes on Data Quality.

Legend

  • E = Estimated
  • M = Missing
  • NA = Not Available*
  • [empty] = Indicates an unobserved value
Date modified: